| time (UTC) | temp F | wind direction | speed knots | gust knots | rain 1hr in | rain 24hr in | rain mn in | humidity % | barometer mb |
| 20260510211003 | 55 | 294 | 0.9 | 2.6 | 0.00 | 0.00 | 0.00 | 72 | 1011.6 |
| 20260510205507 | 55 | 261 | 0.9 | 4.3 | 0.00 | 0.00 | 0.00 | 71 | 1011.5 |
| 20260510204004 | 56 | 271 | 1.7 | 3.5 | 0.00 | 0.00 | 0.00 | 69 | 1011.4 |
| 20260510195508 | 56 | 276 | 1.7 | 3.5 | 0.00 | 0.00 | 0.00 | 68 | 1011.2 |
| 20260510194004 | 57 | 298 | 0.9 | 2.6 | 0.00 | 0.00 | 0.00 | 66 | 1011.1 |
| 20260510185530 | 59 | 8 | 0.0 | 2.6 | 0.00 | 0.00 | 0.00 | 61 | 1010.8 |
| 20260510182520 | 60 | 273 | 0.9 | 2.6 | 0.00 | 0.00 | 0.00 | 60 | 1010.6 |
| 20260510181005 | 60 | 285 | 0.9 | 3.5 | 0.00 | 0.00 | 0.00 | 57 | 1010.4 |
| 20260510175509 | 61 | 269 | 2.6 | 3.5 | 0.00 | 0.00 | 0.00 | 55 | 1010.5 |
| 20260510174004 | 62 | 282 | 1.7 | 3.5 | 0.00 | 0.00 | 0.00 | 56 | 1010.2 |
| 20260510172508 | 63 | 295 | 1.7 | 3.5 | 0.00 | 0.00 | 0.00 | 53 | 1010.4 |
| 20260510171005 | 64 | 292 | 1.7 | 3.5 | 0.00 | 0.00 | 0.00 | 53 | 1010.1 |
| 20260510165508 | 65 | 313 | 0.9 | 3.5 | 0.00 | 0.00 | 0.00 | 50 | 1010.2 |
| 20260510164004 | 65 | 253 | 1.7 | 3.5 | 0.00 | 0.00 | 0.00 | 50 | 1010.0 |
| 20260510162507 | 64 | 295 | 1.7 | 3.5 | 0.00 | 0.00 | 0.00 | 52 | 1009.9 |
| 20260510161004 | 65 | 274 | 2.6 | 3.5 | 0.00 | 0.00 | 0.00 | 51 | 1009.9 |
| 20260510155508 | 65 | 347 | 0.9 | 4.3 | 0.00 | 0.00 | 0.00 | 51 | 1009.7 |
| 20260510154003 | 64 | 246 | 0.0 | 3.5 | 0.00 | 0.00 | 0.00 | 50 | 1010.1 |
| 20260510151004 | 66 | 57 | 0.9 | 3.5 | 0.00 | 0.00 | 0.00 | 52 | 1009.9 |
| 20260510145512 | 66 | 261 | 1.7 | 3.5 | 0.00 | 0.00 | 0.00 | 51 | 1009.9 |
| 20260510142507 | 67 | 24 | 0.9 | 2.6 | 0.00 | 0.00 | 0.00 | 49 | 1010.1 |
| 20260510141014 | 68 | 283 | 0.9 | 2.6 | 0.00 | 0.00 | 0.00 | 48 | 1010.4 |
| 20260510135508 | 68 | 260 | 0.9 | 2.6 | 0.00 | 0.00 | 0.00 | 48 | 1010.4 |
| 20260510132509 | 67 | 271 | 0.9 | 1.7 | 0.00 | 0.00 | 0.00 | 48 | 1010.4 |
| 20260510131003 | 68 | 256 | 0.9 | 3.5 | 0.00 | 0.00 | 0.00 | 48 | 1010.6 |
| 20260510125508 | 68 | 286 | 0.9 | 1.7 | 0.00 | 0.00 | 0.00 | 48 | 1010.6 |
| 20260510124004 | 65 | 317 | 0.9 | 2.6 | 0.00 | 0.00 | 0.00 | 51 | 1010.8 |
| 20260510122507 | 67 | 262 | 0.9 | 1.7 | 0.00 | 0.00 | 0.00 | 49 | 1011.0 |
| 20260510121004 | 68 | 274 | 0.9 | 1.7 | 0.00 | 0.00 | 0.00 | 47 | 1011.2 |
| 20260510115507 | 67 | 307 | 0.0 | 1.7 | 0.00 | 0.00 | 0.00 | 50 | 1011.2 |
| 20260510112509 | 67 | 221 | 1.7 | 1.7 | 0.00 | 0.00 | 0.00 | 49 | 1011.6 |
| 20260510111010 | 66 | 190 | 1.7 | 1.7 | 0.00 | 0.00 | 0.00 | 50 | 1011.6 |
| 20260510105507 | 65 | 46 | 0.0 | 1.7 | 0.00 | 0.00 | 0.00 | 52 | 1011.6 |
| 20260510104004 | 65 | 153 | 0.0 | 0.9 | 0.00 | 0.00 | 0.00 | 53 | 1011.8 |
| 20260510102508 | 63 | 211 | 0.0 | 0.9 | 0.00 | 0.00 | 0.00 | 55 | 1012.0 |
| 20260510101003 | 65 | 141 | 0.0 | 0.9 | 0.00 | 0.00 | 0.00 | 54 | 1012.1 |
| 20260510095547 | 64 | 190 | 0.0 | 1.7 | 0.00 | 0.00 | 0.00 | 54 | 1012.0 |
| 20260510094037 | 65 | 97 | 0.0 | 0.9 | 0.00 | 0.00 | 0.00 | 51 | 1011.9 |
| 20260510091020 | 62 | 192 | 0.9 | 1.7 | 0.00 | 0.04 | 0.00 | 54 | 1011.6 |
| 20260510084008 | 63 | 355 | 0.0 | 0.9 | 0.00 | 0.11 | 0.00 | 51 | 1011.9 |
| 20260510082521 | 62 | 187 | 0.0 | 0.9 | 0.00 | 0.13 | 0.00 | 56 | 1011.8 |
| 20260510081005 | 60 | 122 | 0.0 | 0.9 | 0.00 | 0.13 | 0.00 | 54 | 1011.7 |
| 20260510075508 | 60 | 219 | 0.9 | 1.7 | 0.00 | 0.13 | 0.00 | 58 | 1011.9 |
| 20260510074004 | 59 | 242 | 0.0 | 0.9 | 0.00 | 0.13 | 0.00 | 59 | 1011.8 |
| 20260510072508 | 57 | 296 | 0.9 | 1.7 | 0.00 | 0.13 | 0.00 | 61 | 1011.9 |
| 20260510071006 | 56 | 208 | 0.0 | 1.7 | 0.00 | 0.13 | 0.00 | 66 | 1011.7 |
| 20260510065508 | 54 | 224 | 0.9 | 1.7 | 0.00 | 0.13 | 0.00 | 68 | 1011.8 |
| 20260510064004 | 53 | 237 | 0.0 | 1.7 | 0.00 | 0.13 | 0.00 | 74 | 1011.8 |
| 20260510062507 | 51 | 212 | 0.0 | 0.9 | 0.00 | 0.13 | 0.00 | 76 | 1011.6 |
| 20260510061004 | 49 | 258 | 0.0 | 0.9 | 0.00 | 0.13 | 0.00 | 79 | 1011.4 |
| 20260510055507 | 47 | 217 | 0.0 | 0.9 | 0.00 | 0.13 | 0.00 | 83 | 1011.3 |
| 20260510054004 | 47 | 274 | 0.0 | 0.9 | 0.00 | 0.13 | 0.00 | 84 | 1011.5 |
| 20260510052519 | 46 | 308 | 0.0 | 0.9 | 0.00 | 0.13 | 0.00 | 85 | 1011.0 |
| 20260510051004 | 46 | 247 | 0.9 | 0.9 | 0.00 | 0.13 | 0.00 | 85 | 1011.1 |
| 20260510045507 | 46 | 290 | 0.0 | 0.9 | 0.00 | 0.13 | 0.00 | 85 | 1011.2 |
| 20260510044004 | 46 | 257 | 0.0 | 0.9 | 0.00 | 0.13 | 0.00 | 86 | 1011.0 |
| 20260510042507 | 46 | 271 | 0.9 | 0.9 | 0.00 | 0.13 | 0.00 | 85 | 1010.9 |
| 20260510041003 | 46 | 223 | 0.0 | 0.9 | 0.00 | 0.13 | 0.00 | 85 | 1011.0 |
| 20260510034005 | 49 | 267 | 0.9 | 1.7 | 0.00 | 0.13 | 0.00 | 79 | 1011.0 |
| 20260510032511 | 49 | 248 | 0.9 | 2.6 | 0.00 | 0.13 | 0.00 | 76 | 1011.1 |
| 20260510031005 | 49 | 350 | 0.9 | 1.7 | 0.00 | 0.13 | 0.00 | 78 | 1010.9 |
| 20260510025508 | 49 | 293 | 0.9 | 1.7 | 0.00 | 0.13 | 0.00 | 79 | 1011.0 |
| 20260510024004 | 48 | 306 | 0.0 | 0.9 | 0.00 | 0.13 | 0.00 | 79 | 1011.1 |
| 20260510022508 | 48 | 265 | 0.0 | 1.7 | 0.00 | 0.13 | 0.00 | 82 | 1010.8 |
| 20260510021004 | 48 | 300 | 0.9 | 1.7 | 0.00 | 0.13 | 0.00 | 84 | 1010.9 |
| 20260510015508 | 48 | 145 | 0.9 | 1.7 | 0.00 | 0.13 | 0.00 | 83 | 1010.9 |
| 20260510014005 | 48 | 269 | 0.0 | 1.7 | 0.00 | 0.13 | 0.00 | 83 | 1010.9 |
| 20260510012521 | 48 | 254 | 0.9 | 0.9 | 0.00 | 0.13 | 0.00 | 84 | 1010.9 |
| 20260510011005 | 47 | 267 | 0.0 | 1.7 | 0.00 | 0.13 | 0.00 | 85 | 1011.1 |
| 20260510005521 | 48 | 312 | 0.9 | 1.7 | 0.00 | 0.13 | 0.00 | 84 | 1011.0 |
| 20260510004004 | 48 | 295 | 0.0 | 1.7 | 0.00 | 0.13 | 0.00 | 83 | 1011.3 |
| 20260510001045 | 49 | 279 | 0.9 | 1.7 | 0.00 | 0.13 | 0.00 | 81 | 1011.6 |
| 20260509232528 | 50 | 272 | 0.9 | 2.6 | 0.00 | 0.13 | 0.00 | 80 | 1011.7 |
| 20260509231017 | 50 | 236 | 0.9 | 1.7 | 0.00 | 0.13 | 0.00 | 79 | 1011.7 |
| 20260509225515 | 51 | 309 | 0.9 | 1.7 | 0.00 | 0.13 | 0.00 | 78 | 1011.7 |
| 20260509224005 | 52 | 177 | 0.0 | 3.5 | 0.00 | 0.13 | 0.00 | 74 | 1011.6 |
| 20260509222507 | 51 | 253 | 0.9 | 2.6 | 0.00 | 0.13 | 0.00 | 79 | 1011.7 |
| 20260509221006 | 50 | 286 | 0.9 | 1.7 | 0.00 | 0.13 | 0.00 | 82 | 1011.8 |
| 20260509215507 | 51 | 249 | 0.0 | 2.6 | 0.00 | 0.13 | 0.13 | 81 | 1011.7 |
| 20260509212508 | 52 | 282 | 0.9 | 2.6 | 0.00 | 0.13 | 0.13 | 79 | 1011.9 |